This demonstration page uses our WeatherBlox Daily Observations layout. Learn more.

Left ArrowRight Arrow

Hourly Observations for July 4, 2018

Temp ( °F °C ) Dew Point ( °F °C ) Humidity (%) Winds ( mph kmh ) Pressure ( in mb ) Visibility ( mi km ) Precip ( " mm )
12:53 am 00:53 Clear 81 27.2 59 15 47 47 SE 8 13 29.83 1010 10 16 0.00 0.00
1:53 am 01:53 Clear 78 25.6 61 16.1 56 56 SSE 7 11 29.84 1010 10 16 0.00 0.00
2:53 am 02:53 Clear 77 25 62 16.7 60 60 SE 6 9 29.82 1010 10 16 0.00 0.00
3:53 am 03:53 Clear 78 25.6 61 16.1 56 56 SE 7 11 29.82 1010 10 16 0.00 0.00
4:53 am 04:53 Clear 77 25 58 14.4 52 52 SE 9 15 29.82 1010 10 16 0.00 0.00
5:53 am 05:53 Clear 76 24.4 57 13.9 52 52 ESE 8 13 29.83 1010 10 16 0.00 0.00
6:53 am 06:53 Sunny 76 24.4 57 13.9 52 52 ESE 9 15 29.85 1011 10 16 0.00 0.00
7:53 am 07:53 Sunny 77 25 58 14.4 52 52 SE 12 19 29.86 1011 10 16 0.00 0.00
8:53 am 08:53 Mostly Sunny 80 26.7 60 15.6 51 51 SE 14 22 29.88 1012 10 16 0.00 0.00
9:53 am 09:53 Sunny 84 28.9 59 15 43 43 SSE 15 24 29.90 1012 10 16 0.00 0.00
10:53 am 10:53 Sunny 88 31.1 60 15.6 39 39 SSE 13 20 29.90 1012 10 16 0.00 0.00
11:53 am 11:53 Sunny 92 33.3 60 15.6 34 34 ESE 15 24 29.89 1012 10 16 0.00 0.00
12:53 pm 12:53 Sunny 95 35 59 15 30 30 ESE 14 22 29.88 1012 10 16 0.00 0.00
1:53 pm 13:53 Sunny 97 36.1 56 13.3 25 25 SE 16 26 29.87 1012 10 16 0.00 0.00
2:53 pm 14:53 Sunny 99 37.2 55 12.8 23 23 E 12 19 29.86 1011 10 16 0.00 0.00
3:53 pm 15:53 Sunny 99 37.2 48 8.9 18 18 ESE 9 15 29.84 1011 10 16 0.00 0.00
4:53 pm 16:53 Sunny 100 37.8 44 6.7 15 15 SE 16 26 29.84 1010 10 16 0.00 0.00
5:53 pm 17:53 Sunny 100 37.8 45 7.2 15 15 ESE 8 13 29.83 1010 10 16 0.00 0.00
6:53 pm 18:53 Sunny 99 37.2 46 7.8 16 16 ESE 9 15 29.83 1010 10 16 0.00 0.00
7:53 pm 19:53 Sunny 98 36.7 47 8.3 17 17 E 13 20 29.84 1011 10 16 0.00 0.00
8:23 pm 20:23 Mostly Sunny 96 35.6 48 8.9 19 19 ESE 12 19 29.74 1007 10 16 0.00 0.00
8:53 pm 20:53 Sunny 95 35 50 10 22 22 ESE 10 17 29.86 1011 10 16 0.00 0.00
9:53 pm 21:53 Clear 89 31.7 50 10 26 26 E 8 13 29.88 1012 10 16 0.00 0.00
10:53 pm 22:53 Partly Cloudy 87 30.6 49 9.4 27 27 E 9 15 29.90 1013 10 16 0.00 0.00
11:53 pm 23:53 Clear 86 30 51 10.6 30 30 ESE 10 17 29.93 1014 10 16 0.00 0.00

Powered by AerisWeather